Time,TemperatureF,DewpointF,PressureIn,WindDirection,WindDirectionDegrees,WindSpeedMPH,WindSpeedGustMPH,Humidity,HourlyPrecipIn,Conditions,Clouds,dailyrainin,SolarRadiationWatts/m^2,SoftwareType,DateUTC
2013-09-02 00:00:00,57.2,45.9,29.82,NW,323,0.0,1.0,66,0.00,,,0.00,0,WeatherCatV1.21B27,2013-09-02 07:00:00,
2013-09-02 00:05:00,57.3,46.0,29.82,NW,323,0.0,0.0,66,0.00,,,0.00,0,WeatherCatV1.21B27,2013-09-02 07:05:00,
2013-09-02 00:10:00,57.3,46.0,29.82,NW,323,0.0,0.0,66,0.00,,,0.00,0,WeatherCatV1.21B27,2013-09-02 07:10:00,
2013-09-02 00:15:00,57.3,46.0,29.80,NW,323,0.0,0.0,66,0.00,,,0.00,0,WeatherCatV1.21B27,2013-09-02 07:15:00,
2013-09-02 00:20:00,57.3,46.0,29.80,NW,323,2.0,2.0,66,0.00,,,0.00,0,WeatherCatV1.21B27,2013-09-02 07:20:00,
2013-09-02 00:25:00,57.3,46.0,29.80,NW,323,0.0,0.0,66,0.00,,,0.00,0,WeatherCatV1.21B27,2013-09-02 07:25:00,
2013-09-02 00:30:00,57.3,46.0,29.79,NW,323,0.0,0.0,66,0.00,,,0.00,0,WeatherCatV1.21B27,2013-09-02 07:30:00,
2013-09-02 00:35:00,57.6,45.9,29.79,NW,324,0.0,3.0,65,0.00,,,0.00,0,WeatherCatV1.21B27,2013-09-02 07:35:00,
2013-09-02 00:40:00,57.6,45.9,29.79,NW,324,0.0,0.0,65,0.00,,,0.00,0,WeatherCatV1.21B27,2013-09-02 07:40:00,
2013-09-02 00:45:00,57.6,45.9,29.78,NW,324,2.0,2.0,65,0.00,,,0.00,0,WeatherCatV1.21B27,2013-09-02 07:45:00,
2013-09-02 00:50:00,57.8,46.1,29.78,NW,323,0.0,1.0,65,0.00,,,0.00,0,WeatherCatV1.21B27,2013-09-02 07:50:00,
2013-09-02 00:55:00,57.8,46.1,29.78,NW,323,0.0,4.0,65,0.00,,,0.00,0,WeatherCatV1.21B27,2013-09-02 07:55:00,
2013-09-02 01:00:00,57.8,46.1,29.78,NW,323,0.0,0.0,65,0.00,,,0.00,0,WeatherCatV1.21B27,2013-09-02 08:00:00,
2013-09-02 01:05:00,57.8,46.1,29.78,NW,323,0.0,0.0,65,0.00,,,0.00,0,WeatherCatV1.21B27,2013-09-02 08:05:00,
2013-09-02 01:10:00,57.8,46.1,29.78,NW,323,0.0,1.0,65,0.00,,,0.00,0,WeatherCatV1.21B27,2013-09-02 08:10:00,
2013-09-02 01:15:00,57.6,45.9,29.77,NW,311,0.0,4.0,65,0.00,,,0.00,0,WeatherCatV1.21B27,2013-09-02 08:15:00,
2013-09-02 01:20:00,57.6,46.3,29.77,WNW,288,5.0,5.0,66,0.00,,,0.00,0,WeatherCatV1.21B27,2013-09-02 08:20:00,
2013-09-02 01:25:00,57.6,46.3,29.77,WNW,283,3.0,4.0,66,0.00,,,0.00,0,WeatherCatV1.21B27,2013-09-02 08:25:00,
2013-09-02 01:30:00,57.5,46.2,29.78,WNW,293,2.0,5.0,66,0.00,,,0.00,0,WeatherCatV1.21B27,2013-09-02 08:30:00,
2013-09-02 01:35:00,57.5,46.2,29.78,WNW,293,0.0,3.0,66,0.00,,,0.00,0,WeatherCatV1.21B27,2013-09-02 08:35:00,
2013-09-02 01:40:00,57.5,46.2,29.78,WNW,299,4.0,4.0,66,0.00,,,0.00,0,WeatherCatV1.21B27,2013-09-02 08:40:00,
2013-09-02 01:45:00,57.5,46.2,29.79,WNW,299,2.0,3.0,66,0.00,,,0.00,0,WeatherCatV1.21B27,2013-09-02 08:45:00,
2013-09-02 01:50:00,57.5,46.2,29.79,NW,305,3.0,7.0,66,0.00,,,0.00,0,WeatherCatV1.21B27,2013-09-02 08:50:00,
2013-09-02 01:55:00,57.6,46.3,29.79,NW,305,2.0,2.0,66,0.00,,,0.00,0,WeatherCatV1.21B27,2013-09-02 08:55:00,
2013-09-02 02:00:00,57.5,46.2,29.78,NW,305,0.0,3.0,66,0.00,,,0.00,0,WeatherCatV1.21B27,2013-09-02 09:00:00,
2013-09-02 02:05:00,57.5,46.2,29.78,NW,306,2.0,5.0,66,0.00,,,0.00,0,WeatherCatV1.21B27,2013-09-02 09:05:00,
2013-09-02 02:10:00,57.5,46.6,29.78,NW,307,0.0,2.0,67,0.00,,,0.00,0,WeatherCatV1.21B27,2013-09-02 09:10:00,
2013-09-02 02:15:00,57.3,47.2,29.78,NW,317,2.0,2.0,69,0.00,,,0.00,0,WeatherCatV1.21B27,2013-09-02 09:15:00,
2013-09-02 02:20:00,57.2,47.5,29.78,NW,318,0.0,0.0,70,0.00,,,0.00,0,WeatherCatV1.21B27,2013-09-02 09:20:00,
2013-09-02 02:25:00,57.0,47.3,29.78,NW,319,0.0,2.0,70,0.00,,,0.00,0,WeatherCatV1.21B27,2013-09-02 09:25:00,
2013-09-02 02:30:00,57.0,46.9,29.78,NW,319,0.0,0.0,69,0.00,,,0.00,0,WeatherCatV1.21B27,2013-09-02 09:30:00,
2013-09-02 02:35:00,57.0,46.9,29.78,NNW,333,5.0,5.0,69,0.00,,,0.00,0,WeatherCatV1.21B27,2013-09-02 09:35:00,
2013-09-02 02:40:00,57.3,46.4,29.78,NNW,336,2.0,4.0,67,0.00,,,0.00,0,WeatherCatV1.21B27,2013-09-02 09:40:00,
2013-09-02 02:45:00,57.5,46.6,29.76,NNW,335,0.0,0.0,67,0.00,,,0.00,0,WeatherCatV1.21B27,2013-09-02 09:45:00,
2013-09-02 02:50:00,57.5,46.6,29.76,NNW,335,0.0,0.0,67,0.00,,,0.00,0,WeatherCatV1.21B27,2013-09-02 09:50:00,
2013-09-02 02:55:00,57.6,46.7,29.76,NNW,337,1.0,2.0,67,0.00,,,0.00,0,WeatherCatV1.21B27,2013-09-02 09:55:00,
2013-09-02 03:00:00,57.6,46.7,29.75,ESE,118,2.0,5.0,67,0.00,,,0.00,0,WeatherCatV1.21B27,2013-09-02 10:00:00,
2013-09-02 03:05:00,58.1,46.8,29.75,SSE,168,0.0,0.0,66,0.00,,,0.00,0,WeatherCatV1.21B27,2013-09-02 10:05:00,
2013-09-02 03:10:00,58.4,46.7,29.75,SSE,164,0.0,0.0,65,0.00,,,0.00,0,WeatherCatV1.21B27,2013-09-02 10:10:00,
2013-09-02 03:15:00,58.6,46.9,29.75,SSE,164,0.0,0.0,65,0.00,,,0.00,0,WeatherCatV1.21B27,2013-09-02 10:15:00,
2013-09-02 03:20:00,58.7,47.0,29.75,South,176,0.0,4.0,65,0.00,,,0.00,0,WeatherCatV1.21B27,2013-09-02 10:20:00,
2013-09-02 03:25:00,58.7,46.5,29.75,South,176,0.0,0.0,64,0.00,,,0.00,0,WeatherCatV1.21B27,2013-09-02 10:25:00,
2013-09-02 03:30:00,58.9,47.2,29.75,South,176,0.0,0.0,65,0.00,,,0.00,0,WeatherCatV1.21B27,2013-09-02 10:30:00,
2013-09-02 03:35:00,58.9,46.7,29.75,NW,312,4.0,6.0,64,0.00,,,0.00,0,WeatherCatV1.21B27,2013-09-02 10:35:00,
2013-09-02 03:40:00,58.9,46.7,29.75,NNW,330,0.0,5.0,64,0.00,,,0.00,0,WeatherCatV1.21B27,2013-09-02 10:40:00,
2013-09-02 03:45:00,58.9,46.7,29.74,NW,304,0.0,0.0,64,0.00,,,0.00,0,WeatherCatV1.21B27,2013-09-02 10:45:00,
2013-09-02 03:50:00,58.9,46.7,29.74,WNW,301,2.0,4.0,64,0.00,,,0.00,0,WeatherCatV1.21B27,2013-09-02 10:50:00,
2013-09-02 03:55:00,58.7,46.5,29.74,WNW,301,0.0,1.0,64,0.00,,,0.00,0,WeatherCatV1.21B27,2013-09-02 10:55:00,
2013-09-02 04:00:00,58.6,46.5,29.74,NNW,337,0.0,5.0,64,0.00,,,0.00,0,WeatherCatV1.21B27,2013-09-02 11:00:00,
2013-09-02 04:05:00,58.4,46.3,29.74,NW,316,2.0,5.0,64,0.00,,,0.00,0,WeatherCatV1.21B27,2013-09-02 11:05:00,
2013-09-02 04:10:00,58.4,46.7,29.74,NW,309,0.0,0.0,65,0.00,,,0.00,0,WeatherCatV1.21B27,2013-09-02 11:10:00,
2013-09-02 04:15:00,58.3,46.6,29.74,SW,226,0.0,1.0,65,0.00,,,0.00,0,WeatherCatV1.21B27,2013-09-02 11:15:00,
2013-09-02 04:20:00,58.3,46.6,29.74,WNW,293,3.0,4.0,65,0.00,,,0.00,0,WeatherCatV1.21B27,2013-09-02 11:20:00,
2013-09-02 04:25:00,58.3,46.6,29.74,NNW,330,0.0,4.0,65,0.00,,,0.00,0,WeatherCatV1.21B27,2013-09-02 11:25:00,
2013-09-02 04:30:00,58.3,46.6,29.74,NW,306,0.0,5.0,65,0.00,,,0.00,0,WeatherCatV1.21B27,2013-09-02 11:30:00,
2013-09-02 04:35:00,58.4,46.7,29.74,NW,316,0.0,0.0,65,0.00,,,0.00,0,WeatherCatV1.21B27,2013-09-02 11:35:00,
2013-09-02 04:40:00,58.4,46.7,29.74,West,275,0.0,1.0,65,0.00,,,0.00,0,WeatherCatV1.21B27,2013-09-02 11:40:00,
2013-09-02 04:45:00,58.4,46.3,29.73,West,276,0.0,4.0,64,0.00,,,0.00,0,WeatherCatV1.21B27,2013-09-02 11:45:00,
2013-09-02 04:50:00,58.4,46.3,29.73,West,278,3.0,4.0,64,0.00,,,0.00,0,WeatherCatV1.21B27,2013-09-02 11:50:00,
2013-09-02 04:55:00,58.4,46.7,29.73,West,270,0.0,0.0,65,0.00,,,0.00,0,WeatherCatV1.21B27,2013-09-02 11:55:00,
2013-09-02 05:00:00,58.4,46.7,29.73,SSW,201,0.0,0.0,65,0.00,,,0.00,0,WeatherCatV1.21B27,2013-09-02 12:00:00,
2013-09-02 05:05:00,58.4,46.7,29.73,WNW,283,4.0,5.0,65,0.00,,,0.00,0,WeatherCatV1.21B27,2013-09-02 12:05:00,
2013-09-02 05:10:00,58.3,46.6,29.73,WNW,283,0.0,5.0,65,0.00,,,0.00,0,WeatherCatV1.21B27,2013-09-02 12:10:00,
2013-09-02 05:16:00,58.1,46.4,29.76,WNW,283,3.0,5.0,65,0.00,,,0.00,0,WeatherCatV1.21B27,2013-09-02 12:16:00,
2013-09-02 05:21:00,58.0,46.3,29.76,NW,314,7.0,8.0,65,0.00,,,0.00,0,WeatherCatV1.21B27,2013-09-02 12:21:00,
2013-09-02 05:26:00,57.8,46.5,29.76,West,264,2.0,5.0,66,0.00,,,0.00,0,WeatherCatV1.21B27,2013-09-02 12:26:00,
2013-09-02 05:31:00,57.6,46.3,29.75,NW,319,5.0,7.0,66,0.00,,,0.00,0,WeatherCatV1.21B27,2013-09-02 12:31:00,
2013-09-02 05:36:00,57.5,46.6,29.75,WNW,301,0.0,2.0,67,0.00,,,0.00,0,WeatherCatV1.21B27,2013-09-02 12:36:00,
2013-09-02 05:41:00,57.3,46.4,29.75,WNW,293,0.0,4.0,67,0.00,,,0.00,0,WeatherCatV1.21B27,2013-09-02 12:41:00,
2013-09-02 05:46:00,57.3,46.4,29.77,WNW,298,3.0,5.0,67,0.00,,,0.00,0,WeatherCatV1.21B27,2013-09-02 12:46:00,
2013-09-02 05:51:00,57.2,46.3,29.77,WNW,299,0.0,1.0,67,0.00,,,0.00,0,WeatherCatV1.21B27,2013-09-02 12:51:00,
2013-09-02 05:56:00,57.2,46.7,29.77,WNW,298,0.0,1.0,68,0.00,,,0.00,0,WeatherCatV1.21B27,2013-09-02 12:56:00,
2013-09-02 06:01:00,57.0,46.5,29.77,WNW,283,4.0,4.0,68,0.00,,,0.00,0,WeatherCatV1.21B27,2013-09-02 13:01:00,
2013-09-02 06:06:00,57.0,46.5,29.77,WNW,293,3.0,3.0,68,0.00,,,0.00,0,WeatherCatV1.21B27,2013-09-02 13:06:00,
2013-09-02 06:11:00,57.0,46.5,29.77,NW,316,5.0,5.0,68,0.00,,,0.00,0,WeatherCatV1.21B27,2013-09-02 13:11:00,
2013-09-02 06:16:00,57.0,46.5,29.77,WNW,283,0.0,0.0,68,0.00,,,0.00,0,WeatherCatV1.21B27,2013-09-02 13:16:00,
2013-09-02 06:21:00,56.9,46.5,29.77,WSW,245,0.0,4.0,68,0.00,,,0.00,0,WeatherCatV1.21B27,2013-09-02 13:21:00,
2013-09-02 06:26:00,56.9,46.5,29.77,WSW,245,0.0,0.0,68,0.00,,,0.00,0,WeatherCatV1.21B27,2013-09-02 13:26:00,
2013-09-02 06:31:00,56.9,46.5,29.77,WSW,245,0.0,0.0,68,0.00,,,0.00,0,WeatherCatV1.21B27,2013-09-02 13:31:00,
2013-09-02 06:36:00,56.9,46.5,29.77,WSW,245,0.0,0.0,68,0.00,,,0.00,5,WeatherCatV1.21B27,2013-09-02 13:36:00,
2013-09-02 06:41:00,56.9,46.5,29.77,WNW,301,0.0,0.0,68,0.00,,,0.00,11,WeatherCatV1.21B27,2013-09-02 13:41:00,
2013-09-02 06:46:00,56.7,46.3,29.78,WNW,301,0.0,0.0,68,0.00,,,0.00,14,WeatherCatV1.21B27,2013-09-02 13:46:00,
2013-09-02 06:51:00,56.7,46.3,29.78,WNW,301,2.0,3.0,68,0.00,,,0.00,14,WeatherCatV1.21B27,2013-09-02 13:51:00,
2013-09-02 06:56:00,57.0,46.5,29.78,North,353,1.0,6.0,68,0.00,,,0.00,19,WeatherCatV1.21B27,2013-09-02 13:56:00,
2013-09-02 07:01:00,57.0,46.5,29.78,North,353,2.0,3.0,68,0.00,,,0.00,21,WeatherCatV1.21B27,2013-09-02 14:01:00,
2013-09-02 07:06:00,57.0,46.5,29.78,North,352,0.0,2.0,68,0.00,,,0.00,25,WeatherCatV1.21B27,2013-09-02 14:06:00,
2013-09-02 07:11:00,57.2,46.3,29.78,North,352,2.0,4.0,67,0.00,,,0.00,30,WeatherCatV1.21B27,2013-09-02 14:11:00,
2013-09-02 07:16:00,57.3,46.4,29.81,North,352,0.0,0.0,67,0.00,,,0.00,33,WeatherCatV1.21B27,2013-09-02 14:16:00,
2013-09-02 07:21:00,57.3,46.8,29.81,North,352,0.0,0.0,68,0.00,,,0.00,49,WeatherCatV1.21B27,2013-09-02 14:21:00,
2013-09-02 07:26:00,57.3,46.8,29.81,NNW,334,3.0,5.0,68,0.00,,,0.00,62,WeatherCatV1.21B27,2013-09-02 14:26:00,
2013-09-02 07:31:00,57.3,46.8,29.82,NNW,330,0.0,0.0,68,0.00,,,0.00,67,WeatherCatV1.21B27,2013-09-02 14:31:00,
2013-09-02 07:36:00,57.3,46.8,29.82,NNW,330,0.0,0.0,68,0.00,,,0.00,72,WeatherCatV1.21B27,2013-09-02 14:36:00,
2013-09-02 07:41:00,57.3,46.8,29.82,NW,320,0.0,0.0,68,0.00,,,0.00,79,WeatherCatV1.21B27,2013-09-02 14:41:00,
2013-09-02 07:46:00,57.3,46.8,29.82,NW,320,0.0,0.0,68,0.00,,,0.00,88,WeatherCatV1.21B27,2013-09-02 14:46:00,
2013-09-02 07:51:00,57.5,47.4,29.82,NW,316,0.0,0.0,69,0.00,,,0.00,104,WeatherCatV1.21B27,2013-09-02 14:51:00,
2013-09-02 07:56:00,57.6,47.5,29.82,NW,316,0.0,0.0,69,0.00,,,0.00,109,WeatherCatV1.21B27,2013-09-02 14:56:00,
2013-09-02 08:01:00,57.8,47.3,29.82,NW,315,3.0,6.0,68,0.00,,,0.00,127,WeatherCatV1.21B27,2013-09-02 15:01:00,
2013-09-02 08:06:00,58.0,47.1,29.82,NW,318,5.0,5.0,67,0.00,,,0.00,121,WeatherCatV1.21B27,2013-09-02 15:06:00,
2013-09-02 08:11:00,58.1,47.6,29.82,NW,316,0.0,0.0,68,0.00,,,0.00,116,WeatherCatV1.21B27,2013-09-02 15:11:00,
2013-09-02 08:16:00,58.1,47.2,29.83,NW,314,2.0,5.0,67,0.00,,,0.00,116,WeatherCatV1.21B27,2013-09-02 15:16:00,
2013-09-02 08:21:00,58.3,47.4,29.83,NW,312,0.0,3.0,67,0.00,,,0.00,116,WeatherCatV1.21B27,2013-09-02 15:21:00,
2013-09-02 08:26:00,58.3,47.4,29.83,NW,312,2.0,3.0,67,0.00,,,0.00,120,WeatherCatV1.21B27,2013-09-02 15:26:00,
2013-09-02 08:31:00,58.4,47.5,29.84,NW,309,4.0,6.0,67,0.00,,,0.00,139,WeatherCatV1.21B27,2013-09-02 15:31:00,
2013-09-02 08:36:00,58.4,47.1,29.84,NW,323,4.0,4.0,66,0.00,,,0.00,144,WeatherCatV1.21B27,2013-09-02 15:36:00,
2013-09-02 08:41:00,58.6,47.7,29.84,WNW,297,4.0,7.0,67,0.00,,,0.00,149,WeatherCatV1.21B27,2013-09-02 15:41:00,
2013-09-02 08:46:00,58.6,47.3,29.84,West,262,5.0,5.0,66,0.00,,,0.00,142,WeatherCatV1.21B27,2013-09-02 15:46:00,
2013-09-02 08:51:00,58.6,47.3,29.84,West,273,3.0,5.0,66,0.00,,,0.00,163,WeatherCatV1.21B27,2013-09-02 15:51:00,
2013-09-02 08:56:00,58.7,47.0,29.84,NW,311,3.0,9.0,65,0.00,,,0.00,178,WeatherCatV1.21B27,2013-09-02 15:56:00,
2013-09-02 09:01:00,58.7,47.4,29.84,NNW,346,0.0,2.0,66,0.00,,,0.00,176,WeatherCatV1.21B27,2013-09-02 16:01:00,
2013-09-02 09:06:00,58.9,47.6,29.84,NW,310,0.0,2.0,66,0.00,,,0.00,193,WeatherCatV1.21B27,2013-09-02 16:06:00,
2013-09-02 09:11:00,59.0,47.7,29.84,WNW,283,0.0,7.0,66,0.00,,,0.00,200,WeatherCatV1.21B27,2013-09-02 16:11:00,
2013-09-02 09:16:00,59.3,47.9,29.84,WNW,293,4.0,4.0,66,0.00,,,0.00,190,WeatherCatV1.21B27,2013-09-02 16:16:00,
2013-09-02 09:21:00,59.3,47.5,29.84,West,269,0.0,5.0,65,0.00,,,0.00,185,WeatherCatV1.21B27,2013-09-02 16:21:00,
2013-09-02 09:26:00,59.5,47.7,29.84,NW,312,2.0,7.0,65,0.00,,,0.00,193,WeatherCatV1.21B27,2013-09-02 16:26:00,
2013-09-02 09:31:00,59.5,47.7,29.83,WNW,293,6.0,7.0,65,0.00,,,0.00,206,WeatherCatV1.21B27,2013-09-02 16:31:00,
2013-09-02 09:36:00,59.6,47.0,29.83,NNW,343,1.0,5.0,63,0.00,,,0.00,207,WeatherCatV1.21B27,2013-09-02 16:36:00,
2013-09-02 09:41:00,59.8,47.6,29.83,WNW,299,2.0,4.0,64,0.00,,,0.00,197,WeatherCatV1.21B27,2013-09-02 16:41:00,
2013-09-02 09:46:00,59.8,46.8,29.83,WNW,300,1.0,5.0,62,0.00,,,0.00,221,WeatherCatV1.21B27,2013-09-02 16:46:00,
2013-09-02 09:51:00,59.9,47.3,29.83,WNW,297,6.0,6.0,63,0.00,,,0.00,207,WeatherCatV1.21B27,2013-09-02 16:51:00,
2013-09-02 09:56:00,60.1,47.0,29.83,NNW,341,4.0,5.0,62,0.00,,,0.00,213,WeatherCatV1.21B27,2013-09-02 16:56:00,
2013-09-02 10:01:00,60.2,47.1,29.84,NNW,335,2.0,3.0,62,0.00,,,0.00,267,WeatherCatV1.21B27,2013-09-02 17:01:00,
2013-09-02 10:06:00,60.4,47.3,29.84,NNW,335,0.0,1.0,62,0.00,,,0.00,230,WeatherCatV1.21B27,2013-09-02 17:06:00,
2013-09-02 10:11:00,60.5,47.4,29.84,NW,312,2.0,5.0,62,0.00,,,0.00,237,WeatherCatV1.21B27,2013-09-02 17:11:00,
2013-09-02 10:16:00,60.7,46.3,29.82,NW,312,5.0,6.0,59,0.00,,,0.00,225,WeatherCatV1.21B27,2013-09-02 17:16:00,
2013-09-02 10:21:00,60.7,46.7,29.82,WNW,288,5.0,6.0,60,0.00,,,0.00,227,WeatherCatV1.21B27,2013-09-02 17:21:00,
2013-09-02 10:26:00,60.7,46.3,29.82,WNW,283,0.0,8.0,59,0.00,,,0.00,243,WeatherCatV1.21B27,2013-09-02 17:26:00,
2013-09-02 10:31:00,60.7,46.3,29.83,NNW,330,1.0,8.0,59,0.00,,,0.00,243,WeatherCatV1.21B27,2013-09-02 17:31:00,
2013-09-02 10:36:00,60.9,46.0,29.83,NNW,343,3.0,5.0,58,0.00,,,0.00,230,WeatherCatV1.21B27,2013-09-02 17:36:00,
2013-09-02 10:41:00,60.9,46.0,29.83,North,353,5.0,7.0,58,0.00,,,0.00,248,WeatherCatV1.21B27,2013-09-02 17:41:00,
2013-09-02 10:46:00,60.9,46.0,29.83,North,359,4.0,6.0,58,0.00,,,0.00,269,WeatherCatV1.21B27,2013-09-02 17:46:00,
2013-09-02 10:51:00,61.2,45.8,29.83,NNW,342,3.0,10.0,57,0.00,,,0.00,299,WeatherCatV1.21B27,2013-09-02 17:51:00,
2013-09-02 10:56:00,61.3,44.5,29.83,NNW,345,0.0,14.0,54,0.00,,,0.00,276,WeatherCatV1.21B27,2013-09-02 17:56:00,
2013-09-02 11:01:00,61.6,45.8,29.82,NW,313,2.0,7.0,56,0.00,,,0.00,299,WeatherCatV1.21B27,2013-09-02 18:01:00,
2013-09-02 11:06:00,62.0,45.6,29.82,WNW,303,8.0,12.0,55,0.00,,,0.00,350,WeatherCatV1.21B27,2013-09-02 18:06:00,
2013-09-02 11:11:00,62.3,44.5,29.82,WNW,283,2.0,8.0,52,0.00,,,0.00,345,WeatherCatV1.21B27,2013-09-02 18:11:00,
2013-09-02 11:16:00,62.4,45.0,29.84,NNW,339,0.0,3.0,53,0.00,,,0.00,329,WeatherCatV1.21B27,2013-09-02 18:16:00,
2013-09-02 11:21:00,63.1,45.2,29.84,WNW,293,4.0,10.0,52,0.00,,,0.00,332,WeatherCatV1.21B27,2013-09-02 18:21:00,
2013-09-02 11:26:00,63.7,44.7,29.84,WNW,293,9.0,9.0,50,0.00,,,0.00,329,WeatherCatV1.21B27,2013-09-02 18:26:00,
2013-09-02 11:31:00,63.9,44.4,29.81,West,276,5.0,13.0,49,0.00,,,0.00,362,WeatherCatV1.21B27,2013-09-02 18:31:00,
2013-09-02 11:36:00,64.2,44.1,29.81,SSW,211,0.0,14.0,48,0.00,,,0.00,376,WeatherCatV1.21B27,2013-09-02 18:36:00,
2013-09-02 11:41:00,64.3,44.2,29.81,WSW,248,5.0,16.0,48,0.00,,,0.00,394,WeatherCatV1.21B27,2013-09-02 18:41:00,
2013-09-02 11:46:00,64.5,44.4,29.80,WNW,283,10.0,13.0,48,0.00,,,0.00,360,WeatherCatV1.21B27,2013-09-02 18:46:00,
2013-09-02 11:51:00,64.7,45.1,29.80,WNW,301,4.0,4.0,49,0.00,,,0.00,348,WeatherCatV1.21B27,2013-09-02 18:51:00,
2013-09-02 11:56:00,65.2,45.0,29.80,SSW,200,0.0,0.0,48,0.00,,,0.00,332,WeatherCatV1.21B27,2013-09-02 18:56:00,
2013-09-02 12:01:00,65.6,43.7,29.79,NNE,33,7.0,8.0,45,0.00,,,0.00,355,WeatherCatV1.21B27,2013-09-02 19:01:00,
2013-09-02 12:06:00,65.6,43.1,29.79,WNW,283,2.0,8.0,44,0.00,,,0.00,396,WeatherCatV1.21B27,2013-09-02 19:06:00,
2013-09-02 12:11:00,66.0,44.0,29.79,SSE,147,0.0,4.0,45,0.00,,,0.00,397,WeatherCatV1.21B27,2013-09-02 19:11:00,
2013-09-02 12:16:00,66.4,43.8,29.78,East,86,4.0,4.0,44,0.00,,,0.00,315,WeatherCatV1.21B27,2013-09-02 19:16:00,
2013-09-02 12:21:00,66.6,43.4,29.78,NW,317,3.0,6.0,43,0.00,,,0.00,295,WeatherCatV1.21B27,2013-09-02 19:21:00,
2013-09-02 12:26:00,66.9,43.0,29.78,East,96,3.0,7.0,42,0.00,,,0.00,279,WeatherCatV1.21B27,2013-09-02 19:26:00,
2013-09-02 12:31:00,66.9,43.0,29.78,South,186,1.0,11.0,42,0.00,,,0.00,325,WeatherCatV1.21B27,2013-09-02 19:31:00,
2013-09-02 12:36:00,67.1,42.6,29.78,NNW,335,0.0,4.0,41,0.00,,,0.00,374,WeatherCatV1.21B27,2013-09-02 19:36:00,
2013-09-02 12:41:00,67.1,42.6,29.78,WNW,293,2.0,2.0,41,0.00,,,0.00,494,WeatherCatV1.21B27,2013-09-02 19:41:00,
2013-09-02 12:46:00,67.3,42.8,29.78,WNW,283,0.0,10.0,41,0.00,,,0.00,413,WeatherCatV1.21B27,2013-09-02 19:46:00,
2013-09-02 12:51:00,67.4,42.9,29.78,West,274,11.0,11.0,41,0.00,,,0.00,401,WeatherCatV1.21B27,2013-09-02 19:51:00,
2013-09-02 12:56:00,67.6,43.0,29.78,West,279,6.0,14.0,41,0.00,,,0.00,429,WeatherCatV1.21B27,2013-09-02 19:56:00,
2013-09-02 13:02:00,67.6,42.4,29.77,WSW,246,5.0,16.0,40,0.00,,,0.00,274,WeatherCatV1.21B27,2013-09-02 20:02:00,
2013-09-02 13:07:00,67.4,42.2,29.77,West,264,9.0,13.0,40,0.00,,,0.00,271,WeatherCatV1.21B27,2013-09-02 20:07:00,
2013-09-02 13:12:00,66.9,42.4,29.77,NW,314,12.0,18.0,41,0.00,,,0.00,192,WeatherCatV1.21B27,2013-09-02 20:12:00,
2013-09-02 13:17:00,66.8,42.3,29.78,SE,142,3.0,17.0,41,0.00,,,0.00,338,WeatherCatV1.21B27,2013-09-02 20:17:00,
2013-09-02 13:22:00,67.3,41.5,29.78,NW,324,3.0,6.0,39,0.00,,,0.00,315,WeatherCatV1.21B27,2013-09-02 20:22:00,
2013-09-02 13:27:00,67.4,42.2,29.78,SSE,162,2.0,12.0,40,0.00,,,0.00,359,WeatherCatV1.21B27,2013-09-02 20:27:00,
2013-09-02 13:32:00,67.8,42.6,29.78,NW,322,6.0,6.0,40,0.00,,,0.00,352,WeatherCatV1.21B27,2013-09-02 20:32:00,
2013-09-02 13:37:00,67.9,42.7,29.78,NNW,330,3.0,17.0,40,0.00,,,0.00,963,WeatherCatV1.21B27,2013-09-02 20:37:00,
2013-09-02 13:42:00,67.8,43.2,29.78,WNW,298,11.0,15.0,41,0.00,,,0.00,285,WeatherCatV1.21B27,2013-09-02 20:42:00,
2013-09-02 13:47:00,67.3,43.4,29.76,WSW,255,10.0,15.0,42,0.00,,,0.00,267,WeatherCatV1.21B27,2013-09-02 20:47:00,
2013-09-02 13:52:00,66.8,45.3,29.76,North,350,3.0,15.0,46,0.00,,,0.00,287,WeatherCatV1.21B27,2013-09-02 20:52:00,
2013-09-02 13:57:00,66.4,45.5,29.76,WNW,283,8.0,14.0,47,0.00,,,0.00,281,WeatherCatV1.21B27,2013-09-02 20:57:00,
2013-09-02 14:02:00,66.3,46.0,29.77,WNW,293,5.0,12.0,48,0.00,,,0.00,244,WeatherCatV1.21B27,2013-09-02 21:02:00,
2013-09-02 14:07:00,66.1,45.8,29.77,NW,314,12.0,14.0,48,0.00,,,0.00,200,WeatherCatV1.21B27,2013-09-02 21:07:00,
2013-09-02 14:12:00,65.8,46.1,29.77,West,260,8.0,14.0,49,0.00,,,0.00,236,WeatherCatV1.21B27,2013-09-02 21:12:00,
2013-09-02 14:17:00,65.6,45.4,29.77,West,270,5.0,10.0,48,0.00,,,0.00,232,WeatherCatV1.21B27,2013-09-02 21:17:00,
2013-09-02 14:22:00,65.8,45.0,29.77,WNW,293,7.0,10.0,47,0.00,,,0.00,225,WeatherCatV1.21B27,2013-09-02 21:22:00,
2013-09-02 14:27:00,65.8,46.1,29.77,WNW,283,0.0,9.0,49,0.00,,,0.00,183,WeatherCatV1.21B27,2013-09-02 21:27:00,
2013-09-02 14:32:00,65.6,45.9,29.77,WNW,297,6.0,10.0,49,0.00,,,0.00,172,WeatherCatV1.21B27,2013-09-02 21:32:00,
2013-09-02 14:37:00,65.5,45.8,29.77,West,270,3.0,9.0,49,0.00,,,0.00,185,WeatherCatV1.21B27,2013-09-02 21:37:00,
2013-09-02 14:42:00,65.3,46.2,29.77,WNW,293,4.0,13.0,50,0.00,,,0.00,225,WeatherCatV1.21B27,2013-09-02 21:42:00,
2013-09-02 14:47:00,65.2,46.6,29.79,WNW,288,8.0,13.0,51,0.00,,,0.00,213,WeatherCatV1.21B27,2013-09-02 21:47:00,
2013-09-02 14:52:00,65.0,46.9,29.79,NW,318,10.0,15.0,52,0.00,,,0.00,218,WeatherCatV1.21B27,2013-09-02 21:52:00,
2013-09-02 14:57:00,64.8,46.8,29.79,NW,305,10.0,12.0,52,0.00,,,0.00,209,WeatherCatV1.21B27,2013-09-02 21:57:00,
2013-09-02 15:02:00,64.8,46.2,29.78,WNW,293,9.0,12.0,51,0.00,,,0.00,200,WeatherCatV1.21B27,2013-09-02 22:02:00,
2013-09-02 15:07:00,64.8,46.2,29.78,NW,309,12.0,20.0,51,0.00,,,0.00,220,WeatherCatV1.21B27,2013-09-02 22:07:00,
2013-09-02 15:12:00,64.8,46.2,29.78,NW,316,16.0,16.0,51,0.00,,,0.00,163,WeatherCatV1.21B27,2013-09-02 22:12:00,
2013-09-02 15:17:00,64.8,46.2,29.76,WNW,297,3.0,13.0,51,0.00,,,0.00,200,WeatherCatV1.21B27,2013-09-02 22:17:00,
2013-09-02 15:22:00,64.8,46.2,29.76,West,275,3.0,9.0,51,0.00,,,0.00,181,WeatherCatV1.21B27,2013-09-02 22:22:00,
2013-09-02 15:27:00,64.8,45.2,29.76,NW,306,9.0,18.0,49,0.00,,,0.00,202,WeatherCatV1.21B27,2013-09-02 22:27:00,
2013-09-02 15:32:00,65.0,45.4,29.76,West,269,5.0,9.0,49,0.00,,,0.00,244,WeatherCatV1.21B27,2013-09-02 22:32:00,
2013-09-02 15:37:00,65.2,46.1,29.76,West,271,5.0,6.0,50,0.00,,,0.00,255,WeatherCatV1.21B27,2013-09-02 22:37:00,
2013-09-02 15:42:00,65.3,46.2,29.76,WNW,297,4.0,7.0,50,0.00,,,0.00,234,WeatherCatV1.21B27,2013-09-02 22:42:00,
2013-09-02 15:47:00,65.3,45.6,29.75,West,268,3.0,4.0,49,0.00,,,0.00,151,WeatherCatV1.21B27,2013-09-02 22:47:00,
2013-09-02 15:52:00,65.5,45.3,29.75,NW,321,9.0,11.0,48,0.00,,,0.00,221,WeatherCatV1.21B27,2013-09-02 22:52:00,
2013-09-02 15:57:00,65.5,45.3,29.75,West,272,5.0,6.0,48,0.00,,,0.00,258,WeatherCatV1.21B27,2013-09-02 22:57:00,
2013-09-02 16:02:00,65.6,44.8,29.75,South,176,5.0,17.0,47,0.00,,,0.00,315,WeatherCatV1.21B27,2013-09-02 23:02:00,
2013-09-02 16:07:00,66.1,44.7,29.75,West,270,4.0,6.0,46,0.00,,,0.00,323,WeatherCatV1.21B27,2013-09-02 23:07:00,
2013-09-02 16:12:00,66.4,43.8,29.75,NW,314,10.0,15.0,44,0.00,,,0.00,334,WeatherCatV1.21B27,2013-09-02 23:12:00,
2013-09-02 16:17:00,66.8,43.6,29.76,West,270,6.0,6.0,43,0.00,,,0.00,438,WeatherCatV1.21B27,2013-09-02 23:17:00,
2013-09-02 16:22:00,66.9,43.7,29.76,WSW,242,3.0,13.0,43,0.00,,,0.00,339,WeatherCatV1.21B27,2013-09-02 23:22:00,
2013-09-02 16:27:00,67.4,44.1,29.76,WNW,300,5.0,6.0,43,0.00,,,0.00,765,WeatherCatV1.21B27,2013-09-02 23:27:00,
2013-09-02 16:32:00,68.1,44.1,29.74,WNW,303,5.0,6.0,42,0.00,,,0.00,670,WeatherCatV1.21B27,2013-09-02 23:32:00,
2013-09-02 16:37:00,68.1,43.5,29.74,West,278,3.0,11.0,41,0.00,,,0.00,295,WeatherCatV1.21B27,2013-09-02 23:37:00,
2013-09-02 16:42:00,68.1,43.5,29.74,WNW,288,7.0,8.0,41,0.00,,,0.00,434,WeatherCatV1.21B27,2013-09-02 23:42:00,
2013-09-02 16:47:00,67.8,43.2,29.75,WNW,303,4.0,16.0,41,0.00,,,0.00,227,WeatherCatV1.21B27,2013-09-02 23:47:00,
2013-09-02 16:52:00,67.6,43.0,29.75,WNW,283,0.0,5.0,41,0.00,,,0.00,216,WeatherCatV1.21B27,2013-09-02 23:52:00,
2013-09-02 16:57:00,67.4,43.5,29.75,West,272,10.0,12.0,42,0.00,,,0.00,165,WeatherCatV1.21B27,2013-09-02 23:57:00,
2013-09-02 17:02:00,66.8,43.6,29.76,West,270,5.0,13.0,43,0.00,,,0.00,148,WeatherCatV1.21B27,2013-09-03 00:02:00,
2013-09-02 17:07:00,66.3,43.7,29.76,West,274,6.0,11.0,44,0.00,,,0.00,176,WeatherCatV1.21B27,2013-09-03 00:07:00,
2013-09-02 17:12:00,66.0,44.0,29.76,WSW,244,6.0,10.0,45,0.00,,,0.00,174,WeatherCatV1.21B27,2013-09-03 00:12:00,
2013-09-02 17:17:00,65.5,43.6,29.77,West,278,5.0,13.0,45,0.00,,,0.00,174,WeatherCatV1.21B27,2013-09-03 00:17:00,
2013-09-02 17:22:00,65.2,43.3,29.77,WNW,303,10.0,15.0,45,0.00,,,0.00,171,WeatherCatV1.21B27,2013-09-03 00:22:00,
2013-09-02 17:27:00,64.8,43.5,29.77,WNW,301,6.0,12.0,46,0.00,,,0.00,199,WeatherCatV1.21B27,2013-09-03 00:27:00,
2013-09-02 17:32:00,64.7,44.0,29.76,NW,305,3.0,16.0,47,0.00,,,0.00,216,WeatherCatV1.21B27,2013-09-03 00:32:00,
2013-09-02 17:37:00,64.8,44.1,29.76,WNW,301,12.0,12.0,47,0.00,,,0.00,192,WeatherCatV1.21B27,2013-09-03 00:37:00,
2013-09-02 17:42:00,64.7,44.5,29.76,NW,305,11.0,12.0,48,0.00,,,0.00,179,WeatherCatV1.21B27,2013-09-03 00:42:00,
2013-09-02 17:47:00,64.3,45.3,29.76,NW,314,9.0,18.0,50,0.00,,,0.00,251,WeatherCatV1.21B27,2013-09-03 00:47:00,
2013-09-02 17:53:00,64.5,44.4,29.76,SW,236,6.0,16.0,48,0.00,,,0.00,390,WeatherCatV1.21B27,2013-09-03 00:53:00,
2013-09-02 17:58:00,65.2,44.5,29.76,WNW,283,13.0,14.0,47,0.00,,,0.00,371,WeatherCatV1.21B27,2013-09-03 00:58:00,
2013-09-02 18:03:00,65.5,43.6,29.76,WNW,293,12.0,16.0,45,0.00,,,0.00,343,WeatherCatV1.21B27,2013-09-03 01:03:00,
2013-09-02 18:08:00,66.0,43.5,29.76,WSW,250,4.0,6.0,44,0.00,,,0.00,320,WeatherCatV1.21B27,2013-09-03 01:08:00,
2013-09-02 18:13:00,66.3,44.9,29.76,NW,304,11.0,13.0,46,0.00,,,0.00,290,WeatherCatV1.21B27,2013-09-03 01:13:00,
2013-09-02 18:18:00,65.8,45.0,29.75,West,273,9.0,17.0,47,0.00,,,0.00,272,WeatherCatV1.21B27,2013-09-03 01:18:00,
2013-09-02 18:23:00,65.6,44.3,29.75,West,264,12.0,14.0,46,0.00,,,0.00,262,WeatherCatV1.21B27,2013-09-03 01:23:00,
2013-09-02 18:28:00,65.3,43.4,29.75,WNW,288,9.0,13.0,45,0.00,,,0.00,241,WeatherCatV1.21B27,2013-09-03 01:28:00,
2013-09-02 18:33:00,65.2,43.9,29.76,WNW,293,6.0,9.0,46,0.00,,,0.00,225,WeatherCatV1.21B27,2013-09-03 01:33:00,
2013-09-02 18:38:00,65.2,43.3,29.76,WNW,293,10.0,17.0,45,0.00,,,0.00,202,WeatherCatV1.21B27,2013-09-03 01:38:00,
2013-09-02 18:43:00,64.8,43.0,29.76,WNW,293,7.0,16.0,45,0.00,,,0.00,178,WeatherCatV1.21B27,2013-09-03 01:43:00,
2013-09-02 18:48:00,64.5,43.2,29.76,WNW,283,9.0,12.0,46,0.00,,,0.00,155,WeatherCatV1.21B27,2013-09-03 01:48:00,
2013-09-02 18:53:00,64.5,43.2,29.76,WSW,247,7.0,14.0,46,0.00,,,0.00,127,WeatherCatV1.21B27,2013-09-03 01:53:00,
2013-09-02 18:58:00,64.2,43.0,29.76,WNW,283,4.0,13.0,46,0.00,,,0.00,95,WeatherCatV1.21B27,2013-09-03 01:58:00,
2013-09-02 19:03:00,63.9,43.3,29.78,NW,307,6.0,11.0,47,0.00,,,0.00,72,WeatherCatV1.21B27,2013-09-03 02:03:00,
2013-09-02 19:08:00,63.4,43.4,29.78,WNW,288,6.0,14.0,48,0.00,,,0.00,28,WeatherCatV1.21B27,2013-09-03 02:08:00,
2013-09-02 19:13:00,62.7,42.7,29.78,WNW,288,7.0,14.0,48,0.00,,,0.00,21,WeatherCatV1.21B27,2013-09-03 02:13:00,
2013-09-02 19:18:00,62.3,42.9,29.78,WNW,283,5.0,8.0,49,0.00,,,0.00,16,WeatherCatV1.21B27,2013-09-03 02:18:00,
2013-09-02 19:23:00,62.0,43.1,29.78,West,260,3.0,11.0,50,0.00,,,0.00,7,WeatherCatV1.21B27,2013-09-03 02:23:00,
2013-09-02 19:28:00,61.6,43.3,29.78,WSW,245,9.0,11.0,51,0.00,,,0.00,0,WeatherCatV1.21B27,2013-09-03 02:28:00,
2013-09-02 19:33:00,61.3,43.0,29.79,West,272,7.0,13.0,51,0.00,,,0.00,0,WeatherCatV1.21B27,2013-09-03 02:33:00,
2013-09-02 19:38:00,61.2,43.4,29.79,West,267,6.0,16.0,52,0.00,,,0.00,0,WeatherCatV1.21B27,2013-09-03 02:38:00,
2013-09-02 19:43:00,60.9,43.7,29.79,WNW,298,5.0,12.0,53,0.00,,,0.00,0,WeatherCatV1.21B27,2013-09-03 02:43:00,
2013-09-02 19:48:00,60.7,43.5,29.80,WNW,300,6.0,13.0,53,0.00,,,0.00,0,WeatherCatV1.21B27,2013-09-03 02:48:00,
2013-09-02 19:53:00,60.5,43.8,29.80,WNW,293,7.0,12.0,54,0.00,,,0.00,0,WeatherCatV1.21B27,2013-09-03 02:53:00,
2013-09-02 19:58:00,60.2,44.0,29.80,WNW,283,9.0,13.0,55,0.00,,,0.00,0,WeatherCatV1.21B27,2013-09-03 02:58:00,
2013-09-02 20:03:00,60.1,43.9,29.80,WNW,283,9.0,11.0,55,0.00,,,0.00,0,WeatherCatV1.21B27,2013-09-03 03:03:00,
2013-09-02 20:08:00,59.9,44.2,29.80,West,262,4.0,13.0,56,0.00,,,0.00,0,WeatherCatV1.21B27,2013-09-03 03:08:00,
2013-09-02 20:13:00,59.8,44.5,29.80,WNW,288,5.0,7.0,57,0.00,,,0.00,0,WeatherCatV1.21B27,2013-09-03 03:13:00,
2013-09-02 20:18:00,59.6,44.8,29.80,WNW,288,5.0,6.0,58,0.00,,,0.00,0,WeatherCatV1.21B27,2013-09-03 03:18:00,
2013-09-02 20:23:00,59.5,44.7,29.80,West,278,4.0,6.0,58,0.00,,,0.00,0,WeatherCatV1.21B27,2013-09-03 03:23:00,
2013-09-02 20:28:00,59.3,45.0,29.80,WSW,251,3.0,10.0,59,0.00,,,0.00,0,WeatherCatV1.21B27,2013-09-03 03:28:00,
2013-09-02 20:33:00,59.2,45.3,29.80,West,268,4.0,9.0,60,0.00,,,0.00,0,WeatherCatV1.21B27,2013-09-03 03:33:00,
2013-09-02 20:38:00,59.0,45.6,29.80,West,259,6.0,10.0,61,0.00,,,0.00,0,WeatherCatV1.21B27,2013-09-03 03:38:00,
2013-09-02 20:43:00,58.9,45.9,29.80,West,278,7.0,9.0,62,0.00,,,0.00,0,WeatherCatV1.21B27,2013-09-03 03:43:00,
2013-09-02 20:48:00,58.7,46.5,29.80,WNW,283,5.0,13.0,64,0.00,,,0.00,0,WeatherCatV1.21B27,2013-09-03 03:48:00,
2013-09-02 20:53:00,58.6,46.5,29.80,West,261,9.0,10.0,64,0.00,,,0.00,0,WeatherCatV1.21B27,2013-09-03 03:53:00,
2013-09-02 20:58:00,58.3,46.6,29.80,WSW,251,6.0,12.0,65,0.00,,,0.00,0,WeatherCatV1.21B27,2013-09-03 03:58:00,
2013-09-02 21:01:00,58.3,46.6,29.82,WNW,288,6.0,10.0,65,0.00,,,0.00,0,WeatherCatV1.21B27,2013-09-03 04:01:00,
2013-09-02 21:02:00,58.3,46.6,29.82,WSW,247,6.0,12.0,65,0.00,,,0.00,0,WeatherCatV1.21B27,2013-09-03 04:02:00,
2013-09-02 21:03:00,58.3,46.6,29.82,West,275,6.0,12.0,65,0.00,,,0.00,0,WeatherCatV1.21B27,2013-09-03 04:03:00,
2013-09-02 21:04:00,58.1,46.8,29.82,NW,306,6.0,13.0,66,0.00,,,0.00,0,WeatherCatV1.21B27,2013-09-03 04:04:00,
2013-09-02 21:08:00,58.1,46.8,29.82,West,279,4.0,9.0,66,0.00,,,0.00,0,WeatherCatV1.21B27,2013-09-03 04:08:00,
2013-09-02 21:12:00,58.0,46.7,29.82,West,271,5.0,10.0,66,0.00,,,0.00,0,WeatherCatV1.21B27,2013-09-03 04:12:00,
2013-09-02 21:17:00,57.8,46.9,29.81,WNW,293,6.0,11.0,67,0.00,,,0.00,0,WeatherCatV1.21B27,2013-09-03 04:17:00,
2013-09-02 21:22:00,57.6,46.7,29.81,WSW,255,6.0,13.0,67,0.00,,,0.00,0,WeatherCatV1.21B27,2013-09-03 04:22:00,
2013-09-02 21:27:00,57.5,47.0,29.81,West,271,6.0,11.0,68,0.00,,,0.00,0,WeatherCatV1.21B27,2013-09-03 04:27:00,
2013-09-02 21:32:00,57.5,47.0,29.81,SW,234,6.0,7.0,68,0.00,,,0.00,0,WeatherCatV1.21B27,2013-09-03 04:32:00,
2013-09-02 21:37:00,57.3,46.8,29.81,West,278,2.0,6.0,68,0.00,,,0.00,0,WeatherCatV1.21B27,2013-09-03 04:37:00,
2013-09-02 21:42:00,57.2,46.7,29.81,WNW,283,4.0,7.0,68,0.00,,,0.00,0,WeatherCatV1.21B27,2013-09-03 04:42:00,
2013-09-02 21:47:00,57.2,46.7,29.83,WNW,288,5.0,10.0,68,0.00,,,0.00,0,WeatherCatV1.21B27,2013-09-03 04:47:00,
2013-09-02 21:52:00,57.0,46.5,29.83,WNW,283,3.0,9.0,68,0.00,,,0.00,0,WeatherCatV1.21B27,2013-09-03 04:52:00,
2013-09-02 21:57:00,57.0,46.5,29.83,West,259,5.0,6.0,68,0.00,,,0.00,0,WeatherCatV1.21B27,2013-09-03 04:57:00,
2013-09-02 22:02:00,56.9,46.5,29.83,WNW,283,4.0,11.0,68,0.00,,,0.00,0,WeatherCatV1.21B27,2013-09-03 05:02:00,
2013-09-02 22:07:00,56.9,46.5,29.83,WNW,297,3.0,6.0,68,0.00,,,0.00,0,WeatherCatV1.21B27,2013-09-03 05:07:00,
2013-09-02 22:12:00,56.7,46.3,29.83,WNW,283,0.0,4.0,68,0.00,,,0.00,0,WeatherCatV1.21B27,2013-09-03 05:12:00,
2013-09-02 22:17:00,56.7,46.3,29.83,WNW,283,4.0,4.0,68,0.00,,,0.00,0,WeatherCatV1.21B27,2013-09-03 05:17:00,
2013-09-02 22:22:00,56.6,46.2,29.83,WNW,283,1.0,4.0,68,0.00,,,0.00,0,WeatherCatV1.21B27,2013-09-03 05:22:00,
2013-09-02 22:27:00,56.6,46.2,29.83,WNW,288,2.0,2.0,68,0.00,,,0.00,0,WeatherCatV1.21B27,2013-09-03 05:27:00,
2013-09-02 22:32:00,56.5,46.1,29.83,NW,307,0.0,4.0,68,0.00,,,0.00,0,WeatherCatV1.21B27,2013-09-03 05:32:00,
2013-09-02 22:37:00,56.5,46.1,29.83,NW,314,5.0,5.0,68,0.00,,,0.00,0,WeatherCatV1.21B27,2013-09-03 05:37:00,
2013-09-02 22:42:00,56.3,45.9,29.83,NW,318,5.0,6.0,68,0.00,,,0.00,0,WeatherCatV1.21B27,2013-09-03 05:42:00,
2013-09-02 22:47:00,56.3,45.9,29.83,WNW,283,4.0,5.0,68,0.00,,,0.00,0,WeatherCatV1.21B27,2013-09-03 05:47:00,
2013-09-02 22:52:00,56.3,45.9,29.83,NW,311,3.0,5.0,68,0.00,,,0.00,0,WeatherCatV1.21B27,2013-09-03 05:52:00,
2013-09-02 22:57:00,56.3,45.9,29.83,WNW,297,5.0,6.0,68,0.00,,,0.00,0,WeatherCatV1.21B27,2013-09-03 05:57:00,
2013-09-02 23:02:00,56.2,45.8,29.83,NW,305,0.0,0.0,68,0.00,,,0.00,0,WeatherCatV1.21B27,2013-09-03 06:02:00,
2013-09-02 23:07:00,56.0,45.6,29.83,NW,312,0.0,5.0,68,0.00,,,0.00,0,WeatherCatV1.21B27,2013-09-03 06:07:00,
2013-09-02 23:12:00,56.0,45.6,29.83,WNW,303,3.0,5.0,68,0.00,,,0.00,0,WeatherCatV1.21B27,2013-09-03 06:12:00,
2013-09-02 23:17:00,56.0,45.6,29.81,NW,322,4.0,4.0,68,0.00,,,0.00,0,WeatherCatV1.21B27,2013-09-03 06:17:00,
2013-09-02 23:22:00,56.0,45.6,29.81,NW,322,3.0,5.0,68,0.00,,,0.00,0,WeatherCatV1.21B27,2013-09-03 06:22:00,
2013-09-02 23:27:00,56.0,45.6,29.81,NW,310,0.0,5.0,68,0.00,,,0.00,0,WeatherCatV1.21B27,2013-09-03 06:27:00,
2013-09-02 23:32:00,56.0,45.6,29.80,NW,308,2.0,2.0,68,0.00,,,0.00,0,WeatherCatV1.21B27,2013-09-03 06:32:00,
2013-09-02 23:37:00,55.9,45.5,29.80,NW,310,3.0,5.0,68,0.00,,,0.00,0,WeatherCatV1.21B27,2013-09-03 06:37:00,
2013-09-02 23:42:00,55.9,45.9,29.80,NW,310,0.0,0.0,69,0.00,,,0.00,0,WeatherCatV1.21B27,2013-09-03 06:42:00,
2013-09-02 23:47:00,55.7,45.7,29.80,NNW,327,0.0,4.0,69,0.00,,,0.00,0,WeatherCatV1.21B27,2013-09-03 06:47:00,
2013-09-02 23:52:00,55.7,45.7,29.80,NW,324,2.0,6.0,69,0.00,,,0.00,0,WeatherCatV1.21B27,2013-09-03 06:52:00,
2013-09-02 23:57:00,55.6,45.6,29.80,NW,322,0.0,3.0,69,0.00,,,0.00,0,WeatherCatV1.21B27,2013-09-03 06:57:00,